Showing default

ITUPSAT 1, 35935

Orbit data source: Space-Track

ITUPSAT 1, 35935 is a payload satellite owned by ITU SSDTL (TR) in SSO that was launched on Wed, 23 Sep 2009 UTC via a PSLV launch vehicle from the Sirharikota (SRI). Payload-class satellites include a variety of spacecraft equipped with specific instruments for various scientific and technological missions. These include communications satellites like Starlink; space stations such as the ISS; scientific satellites like the Hubble; Earth observation satellites from companies like Planet Labs, Umbra, and HawkEye 360; GPS; miniature CubeSats for education and research; and military/defense satellites.

Loading next visibility...
Identifier
35935, 2009-051E
Orbit
SSO
Country
Flag of UnknownUnknown / TURK
Related business
Manufacturer
ITU SSDTL
Mission
Operational Amateur Imaging
Bus & Motor
CUBESAT 1U, Unknown motor
Mass
1 kg wet, 1 kg dry
Launch date (UTC)
2009-09-23 (16 years ago)
Launch vehicle
PSLV
Launch site
Sirharikota (SRI)
Object type
Payload
Rocket body
Debris
Shape & HBR
Box, 0.1 m
Radar Cross Section
0.015 m², Small (<0.1 m²)

Expand to show TLE details & history
Last TLE update: 22 hours ago

TLE from 22 hours ago
0 ITUPSAT 1
1 35935U 09051E   25348.71027863  .00001258  00000-0  27201-3 0  9997
2 35935  98.4165 247.7108 0008733  89.7995 270.4206 14.60037938861813
Epoch: 2025-12-14T17:02Z
TLE epoch observation values (Epoch: 2025-12-14T17:02:48.073Z)
Latitude
0.00005°
Longitude
-91.6088°
Altitude
695.99 km
Speed
7.508 km/s
True Right ascension
16h 30m 50s
True Declination
0° 00' 00"
Sunlit
Object was in daylight at epoch
Visualization orbit readout
Latitude
Unknown
Longitude
Unknown
Altitude
Unknown
Speed
Unknown
Apparent Right ascension
Unknown
Apparent Declination
Unknown
Sunlit
N/A
Visualization observer readout
Local Sidereal Time
13:21:47
Azimuth
Unknown
Elevation
Unknown
Doppler factor
Unknown
Orbital elements
Apogee altitude
696.315 km
Perigee altitude
683.97 km
Semi-major axis
7,068.28 km
Eccentricity
0.00087
Inclination
98.4165°
RAAN
247.7108°
Arg. of periapsis
89.7995°
True anomaly
270.32053°
Mean anomaly
270.4206°
Eccentric anomaly
270.37056°
Mean motion
3.65235 °/min
Orbital period
98.57 mins
BSTAR
0.00027201
Loading maneuver chart data...
Computing Atmospheric mass density...
Loading historical data...
Loading historical data...
Loading historical data...
Loading historical data...
Loading historical data...
Loading historical data...
Loading historical data...
Other satellites on launch #51 in the year 2009 (2009-09-23 UTC)

Documentation

Showing up to 5 results
|